Paris / Charles De Gaulle, France

9:46 AM CEST on March 28, 2017 (GMT +0200)
Charles de Gaulle

Weather History for LFPG - September, 2013

Change the Weather History Date:

Friday, September 27, 2013

  Actual Average Record
Temperature  
Mean Temperature 63 °F -  
Max Temperature 71 °F 60 °F 77 °F (1997)
Min Temperature 55 °F 47 °F 44 °F (2008)
Degree Days  
Heating Degree Days 2    
Growing Degree Days 13 (Base 50)    
Moisture  
Dew Point 55 °F    
Average Humidity 78    
Maximum Humidity 94    
Minimum Humidity 53    
Precipitation  
Precipitation 0.00 in - - ()
Sea Level Pressure  
Sea Level Pressure 29.95 in    
Wind  
Wind Speed 7 mph ()    
Max Wind Speed 13 mph    
Max Gust Speed -    
Visibility 3.1 miles    
Events      
Averages and records for this station are not official NWS values.
T = Trace of Precipitation, MM = Missing Value Source: Averaged Metar Reports

Daily Weather History Graph

Daily Weather History Graph

Search for Another Location

Airport or City:

Trip Planner

Search our weather history database for the weather conditions in past years. The results will help you decide how hot, cold, wet, or windy it might be!

Date:

Astronomy

Sep. 27, 2013 Rise Set
Actual Time 7:43 AM CEST 7:37 PM CEST
Civil Twilight 7:12 AM CEST 8:08 PM CEST
Nautical Twilight 6:35 AM CEST 8:45 PM CEST
Astronomical Twilight 5:57 AM CEST 9:23 PM CEST
Moon No Moon Rise 3:32 PM CEST (9/27)
Length of Visible Light 12h 56m
Length of Day
11h 53m
Waning Gibbous, 48% of the Moon is Illuminated
Sep 27
Waning Gibbous
Oct 5
New
Oct 12
First Quarter
Oct 19
Full
Oct 27
Last Quarter

Hourly Weather History & Observations

Time (CEST) Temp. Dew Point Humidity Pressure Visibility Wind Dir Wind Speed Gust Speed Precip Events Conditions
12:00 AM 60.8 °F 55.4 °F 82% 30.01 in 2.2 mi NE 8.1 mph - N/A   Mist
12:30 AM 59.0 °F 55.4 °F 88% 30.01 in 2.2 mi NE 8.1 mph - N/A   Mist
1:00 AM 59.0 °F 55.4 °F 88% 30.01 in 2.2 mi NNE 6.9 mph - N/A   Mist
1:30 AM 59.0 °F 55.4 °F 88% 30.01 in 2.2 mi NE 5.8 mph - N/A   Mist
2:00 AM 59.0 °F 55.4 °F 88% 30.01 in 2.5 mi ENE 5.8 mph - N/A   Mist
2:30 AM 57.2 °F 53.6 °F 88% 30.01 in 2.5 mi NE 5.8 mph - N/A   Mist
3:00 AM 57.2 °F 53.6 °F 88% 30.01 in 2.5 mi ENE 5.8 mph - N/A   Mist
3:30 AM 57.2 °F 55.4 °F 94% 29.98 in 2.5 mi NE 6.9 mph - N/A   Mist
4:00 AM 57.2 °F 55.4 °F 94% 29.98 in 2.8 mi NE 4.6 mph - N/A   Mist
4:30 AM 57.2 °F 53.6 °F 88% 29.98 in 2.8 mi NE 4.6 mph - N/A   Mist
5:00 AM 57.2 °F 53.6 °F 88% 29.98 in 2.8 mi NE 4.6 mph - N/A   Mist
5:30 AM 55.4 °F 53.6 °F 94% 29.98 in 2.5 mi NNE 5.8 mph - N/A   Mist
6:00 AM 55.4 °F 53.6 °F 94% 29.98 in 2.5 mi NNE 5.8 mph - N/A   Mist
6:30 AM 55.4 °F 53.6 °F 94% 29.98 in 2.5 mi NNE 6.9 mph - N/A   Mist
7:00 AM 55.4 °F 53.6 °F 94% 29.98 in 2.2 mi NNE 6.9 mph - N/A   Mist
7:30 AM 55.4 °F 53.6 °F 94% 29.95 in 2.2 mi NNE 8.1 mph - N/A   Mist
8:00 AM 55.4 °F 53.6 °F 94% 29.98 in 2.5 mi NE 8.1 mph - N/A   Mist
8:30 AM 55.4 °F 53.6 °F 94% 29.98 in 2.5 mi NE 9.2 mph - N/A   Mist
9:00 AM 55.4 °F 53.6 °F 94% 29.98 in 2.5 mi NE 8.1 mph - N/A   Mist
9:30 AM 57.2 °F 53.6 °F 88% 29.98 in 3.1 mi NE 10.4 mph - N/A   Mist
10:00 AM 59.0 °F 55.4 °F 88% 29.98 in 3.1 mi NE 5.8 mph - N/A   Mist
10:30 AM 60.8 °F 55.4 °F 82% 29.98 in 3.1 mi NE 6.9 mph - N/A   Mist
11:00 AM 60.8 °F 55.4 °F 82% 29.98 in 3.7 mi NE 8.1 mph - N/A   Unknown
11:30 AM 62.6 °F 57.2 °F 82% 29.98 in 5.0 mi NE 9.2 mph - N/A   Unknown
12:00 PM 64.4 °F 57.2 °F 77% 29.98 in 4.3 mi NE 9.2 mph - N/A   Unknown
12:30 PM 66.2 °F 55.4 °F 68% 29.98 in 4.3 mi NE 8.1 mph - N/A   Unknown
1:00 PM 66.2 °F 55.4 °F 68% 29.95 in 5.0 mi ENE 10.4 mph - N/A   Unknown
1:30 PM 68.0 °F 57.2 °F 68% 29.95 in 5.6 mi NE 8.1 mph - N/A   Unknown
2:00 PM 69.8 °F 57.2 °F 64% 29.95 in 5.6 mi ENE 10.4 mph - N/A   Unknown
2:30 PM 71.6 °F 53.6 °F 53% 29.95 in - ENE 9.2 mph - N/A   Clear
3:00 PM 71.6 °F 55.4 °F 57% 29.92 in - ENE 10.4 mph - N/A   Clear
3:30 PM 71.6 °F 55.4 °F 57% 29.92 in - ENE 10.4 mph - N/A   Clear
4:00 PM 71.6 °F 55.4 °F 57% 29.92 in - NE 11.5 mph - N/A   Clear
4:30 PM 71.6 °F 53.6 °F 53% 29.92 in - ENE 12.7 mph - N/A   Clear
5:00 PM 71.6 °F 53.6 °F 53% 29.89 in - ENE 12.7 mph - N/A   Clear
5:30 PM 71.6 °F 53.6 °F 53% 29.89 in - ENE 12.7 mph - N/A   Clear
6:00 PM 71.6 °F 53.6 °F 53% 29.89 in - ENE 11.5 mph - N/A   Clear
6:30 PM 69.8 °F 55.4 °F 60% 29.89 in - ENE 11.5 mph - N/A   Clear
7:00 PM 68.0 °F 55.4 °F 64% 29.89 in - ENE 10.4 mph - N/A   Clear
7:30 PM 66.2 °F 55.4 °F 68% 29.89 in - NE 8.1 mph - N/A   Clear
8:00 PM 64.4 °F 55.4 °F 73% 29.89 in - NE 9.2 mph - N/A   Clear
8:30 PM 64.4 °F 55.4 °F 73% 29.89 in - NE 9.2 mph - N/A   Clear
9:00 PM 64.4 °F 55.4 °F 73% 29.89 in - ENE 10.4 mph - N/A   Clear
9:30 PM 62.6 °F 55.4 °F 77% 29.89 in - ENE 11.5 mph - N/A   Clear
10:00 PM 62.6 °F 55.4 °F 77% 29.89 in - ENE 11.5 mph - N/A   Clear
10:30 PM 62.6 °F 55.4 °F 77% 29.89 in - NE 11.5 mph - N/A   Clear
11:00 PM 62.6 °F 55.4 °F 77% 29.89 in - ENE 10.4 mph - N/A   Clear
11:30 PM 60.8 °F 55.4 °F 82% 29.89 in - ENE 8.1 mph - N/A   Clear